Location: Hains Lake
(37.8540°N, 99.8578°W)
Time: 16:51:43
(UTC+00:00)

Courier 1B Rocket - Pass Details

Date: 28 April 2021
Orbit: 920 x 1202 km, 28.3° (Epoch: 10 May)

Event Time Altitude Azimuth Distance (km) Brightness Sun altitude
Rises 04:16:49 0° 260° (W) 3,670 8.4 -28.4°
Reaches altitude 10° 04:20:25 10° 241° (WSW) 2,770 7.4 -28.9°
Enters shadow 04:22:30 15° 223° (SW) 2,448 7.0 -29.1°
